Погода в Казани

Погода в Казани : погода сейчас, прогноз погоды и архив. Всё, что Вы хотите узнать о погоде в Казани!

Хотите узнать прогноз погоды в Казани? Тогда Вам сюда: Погода в Казани

Поиск расширенной информации на нашем сайте:

Другие новости

Новости СМИ2

Главная страница сайта

Новости сайта

02.10.2013

Напоминаем, что на нашем новом сайте вы можете получить высокодетализированные прогнозы погоды по пунктам России, СНГ и мира (включающие важные для авиации метеовеличины, такие как направление и скорость ветра, видимость, явления погоды, количество и форма облачности, нижняя и верхняя граница облачности), а также ознакомиться с разнообразными материалами по авиационной метеорологии и подборкой полезных ссылок на эту тему.

Сайт Метеоцентр.Азия посвящён разработке технологий оптимизации авиаметеорологического обслуживания, включая проектирование и перспективное создание нескольких автоматизированных авиаметеорологических систем:
- система выпуска высокодетальных прогностических карт явлений погоды для нижнего воздушного пространства по России и ближнему зарубежью;
- система верификации прогнозов TAF (выпускаемых синоптиками официальных АМСГ РФ и ближнего зарубежья) и AUTOTAF (выпускаемых сайтом Метеоцентр.Азия) - выявление ошибок, онлайн-сопоставление с фактической погодой METAR, автоматическое внесение коррективов в прогнозы при резком отклонении фактической погоды от прогноза, подсчёт оправдываемости прогнозов по элементам и в целом;
- система обработки, анализа и отображения авиаметеорологической информации для применения провайдерами метеорологической информации.

Рекомендуем: Подробности вебмани в казахстане у нас.

Погода в Казани - сегодня

Время (UTC), дата Ветер
(°,м/с) 
Видим.   Явления Облачность Т
(°С)
Тd
(°С)
f(%) Тe
(°С)
Pmin
(гПа)
dP
(гПа)
Po
(мм)
O2
(г/м3)
Тmin Tmax R s Состояние
почвы
09 18.02.17 200 (Ю) 10 км  слаб. снег  10/9 600 м средняя 
[Sc|As op]
-7.1 -10 80 -7  1008.6  -1.4  745  309           
12 18.02.17 170 (Ю) 10 км  слаб. снег  10/9 300 м средняя 
[Sc|As op]
-6.6 -9.7 79 -6  1006.9  -1.6  744  308           
15 18.02.17 200 (Ю) 2000 м  снег  10/10 300 м 
[Ns]
-6.3 -8.3 86 -6  1005.9  -1  743  307    -6.3  0.9     
18 18.02.17 230 (ЮЗ) 10 км  слаб. снег  10/0 средняя 
[As op]
-4.6 -6 90 -4  1004.1  -1.7  742  305           
21 18.02.17 250 (З) 10 км  {снег}  10/10 600 м 
[Sc]
-1.5 -2.8 91 -3  1001.7  -2.2  740  300           
00 19.02.17 240 (ЮЗ) 10 км  {снег}  10/10 600 м 
[Sc]
+0.5 -1.8 85 -2  999.5  -2  739  297           
03 19.02.17 280 (З) 5-10{11}  10 км  слаб. снег  10/5 600 м средняя 
[Sc|As op]
-0.8 -2.2 90 -4  999.3  -0.3  738  299  -6.3    62  равномерный
сухой снег
100% 
06 19.02.17 280 (З) 4{12}  10 км  в посл. час ливневой снег  3/3 600 м 
[Sc diur, vesp]
-0.8 -4.3 77 -3  1002.2  2.8  740  300           
09 19.02.17 300 (СЗ) 4{13}  10 км  позёмок{снег}  8/5 600 м средняя 
[Sc diur, vesp|Ac trans]
-0.5 -6.8 62 -3  1006.1  3.9  743  301           
12 19.02.17 320 (СЗ) 2{12}  10 км  {снег}  1/0 средняя 
[Ac trans]
-0.4 -8 56 -1  1009.7  3.5  746  302           
15 19.02.17 280 (З) 10 км    4/0 средняя, верхняя 
[Ac trans|Ci fib]
-3.5 -9.5 63 -6  1011.4  1.5  747  306    +0.1  0.0     
18 19.02.17 180 (Ю) 10 км    10/6 300 м средняя 
[Sc|Ac und]
-3.8 -10 62 -3  1010.4  -1  746  306           
21 19.02.17 160 (Ю) 10 км  слаб. снег  10/8 300 м средняя 
[Sc|As op]
-4.5 -6.6 85 -6  1007.1  -3.2  744  305           
00 20.02.17 240 (ЮЗ) 5-12{12}  4000 м  слаб. снег  10/10 300 м 
[Ns]
-0.6 -2.7 86 -4  1003.1  -3.7  741  300           
03 20.02.17 240 (ЮЗ) 5-11{14}  10 км  слаб. снег  10/9 300 м средняя 
[Frnb|As op]
-0.6 -2.4 88 -4  1001.2  -1.9  740  299  -5.1    62  равномерный
сухой снег
100% 
06 20.02.17 250 (З) 5-11{12}  10 км  слаб. снег  10/10 300 м 
[Ns]
+0.3 -2.1 84 -3  1000.2  -0.9  739  298           
09 20.02.17 260 (З) 5{11}  10 км  {снег}  10/9 600 м средняя 
[Sc|As op]
+1.3 -1.2 83 -1  999.9  -0.3  739  296           
12 20.02.17 260 (З) 5{10}  10 км  {снег}  10/10 600 м 
[Sc]
+1.6 -1.1 82 -1  999.3  -0.5  739  296           
15 20.02.17 250 (З) 3{12}  10 км  слаб. дождь  10/8 300 м средняя 
[Sc|As op]
+1.3 -0.7 86 999.2  -0.2  738  296    +1.8  0.5     
18 20.02.17 250 (З) 6-12{12}  10 км  {дождь}  10/6 600 м средняя 
[Sc diur, vesp|As op]
+1.5 -0.5 87 -2  998.9  -0.3  738  296           
21 20.02.17 240 (ЮЗ) 6-11{12}  10 км    10/10 600 м 
[Sc diur, vesp]
+1.4 -1 84 -2  998.6  -0.3  738  296           
00 21.02.17 240 (ЮЗ) 5-10{14}  10 км    10/10 600 м 
[Sc diur, vesp]
+1.3 -1.4 82 -1  997.4  -1.3  737  296           
03 21.02.17 240 (ЮЗ) 6-11{12}  10 км  слаб. снег  10/10 600 м 
[Sc diur, vesp]
+0.8 -1.8 83 -3  996.6  -0.7  737  296  +0.8    58  равномерный
мокрый или
старый снег
100% 
06 21.02.17 230 (ЮЗ) 5{11}  10 км  {снег}  10/10 600 м 
[Sc]
+1 -2.3 79 -2  996.2  -0.4  736  296           
09 21.02.17 240 (ЮЗ) 4-10{11}  10 км  {снег}  10/10 600 м 
[Sc]
+1.4 -2.4 76 -1  994.7  -1.5  735  295           
Время (UTC), дата Ветер
(°,м/с) 
Видим.   Явления Облачность Т
(°С)
Тd
(°С)
f(%) Тe
(°С)
Pmin
(гПа)
dP
(гПа)
Po
(мм)
O2
(г/м3)
Тmin Tmax R s Состояние
почвы

Для получения пояснительной информации подведите курсор к названию столбца.

ПОГОДА в Казани - архив

Всё, что Вы хотите узнать о погоде в Казани - удобно и подробно!

Выберите нужную дату (начиная с 1 января 2015* года) и нажмите кнопку "Найти".
Будут отображены архивные сводки погоды по пункту Казань, начиная с указанной даты.


Отображать данные в формате CSV (для использования в таблицах Excel)


Внимание! Наш архив погоды предназначен исключительно для личного некоммерческого использования в познавательных целях. Если Вам необходимы официальные справки о состоянии погоды (для производственных, юридических, коммерческих и т.п. целей), обращайтесь в органы Росгидромета.

*Примечание: данная дата относится к архиву по метеостанциям СССР (Россия, СНГ, Балтия).
Архив по метеостанциям Зарубежной Европы и Азии (кроме Китая) хранится 10 дней, по другим регионам земного шара (Китай, Африка, Америка, Австралия, Океания) - 1 день.

Казань - район местоположения метеостанции


Название, широта, долгота, высота метеостанции:
Казань 55.6°ш. 49.3°д. 116 м над ур. моря [Российская Федерация]

Дополнительная информация

В oтличие oт бoльшинства пoгoдных сайтoв мы публикуем пoдрoбную метеoинфoрмацию в детальнoм прoфессиoнальнoм фoрмате.

Характеристики температуры и влажнoсти вoздуха измеряются на высoте 2 м в тени вдали oт зданий и деревьев.
Скoрoсть ветра измеряется на высoте 10 м (на урoвне рoста челoвека скoрoсть ветра ниже в 1.5-2 раза). Если метеoстанция нахoдится в гoрoде или в лесу, тo скoрoсть ветра занижена на 2-4 м/с пo сравнению с oткрытым местoм. Скoрoсть ветра над акватoриями крупных рек и oзёр, а также на вершинах хoлмoв на 2-5 м/с выше, чем в oбычных услoвиях.
Атмoсфернoе давление в разных тoчках местнoсти мoжет значительнo oтличаться oт давления на метеoстанции, в зависимoсти oт услoвий рельефа (при пoдъёме на 10 м давление пoнижается примернo на 1 мм рт.ст.).